Location: Guferjoch
(46.7462°N, 8.4506°E)
Time: 13:17:21
(UTC+00:00)

SL-16 R/B - Pass Details

Date: 14 July 2020
Orbit: 985 x 1006 km, 99.5° (Epoch: 07 August)

Event Time Altitude Azimuth Distance (km) Brightness Sun altitude
Exits shadow 00:11:55 13° 131° (SE) 2,528 4.4 -21.0°
Maximum altitude 00:17:03 44° 65° (ENE) 1,370 3.5 -20.9°
Drops below altitude 10° 00:22:56 10° 356° (N) 2,793 6.0 -20.7°
Sets 00:25:32 0° 350° (N) 3,748 6.7 -20.6°
